N282WB KAPA-KPVU

Flight info

Callsign N282WB
Flight time N/A
Altitude 40000
Route WNGSS1 TEHRU RIL HELPR
Aircraft C25B/M-SDE2E3FGHRWXY/LB1

Departure

Time 2026-04-25 20:51
Airport Centennial Airport (KAPA)

Arrival

Time N/A
Airport Provo Municipal Airport (KPVU)
Time Latitude Longitude Altitude Speed Heading
2026-04-25 20:28 39.58045 -104.84867 5806 ft 0 kts 88°
2026-04-25 20:44 39.58067 -104.84857 5811 ft 12 kts 298°
2026-04-25 20:44 39.58058 -104.84986 5815 ft 14 kts 202°
2026-04-25 20:44 39.57962 -104.84986 5809 ft 14 kts 178°
2026-04-25 20:45 39.57877 -104.84983 5812 ft 11 kts 178°
2026-04-25 20:45 39.57803 -104.84979 5814 ft 10 kts 178°
2026-04-25 20:45 39.57718 -104.84974 5819 ft 15 kts 177°
2026-04-25 20:45 39.57593 -104.84969 5824 ft 21 kts 178°
2026-04-25 20:46 39.57431 -104.84961 5834 ft 25 kts 178°
2026-04-25 20:46 39.57245 -104.84954 5840 ft 29 kts 178°
2026-04-25 20:46 39.57054 -104.84944 5846 ft 25 kts 178°
2026-04-25 20:46 39.56888 -104.84937 5849 ft 23 kts 178°
2026-04-25 20:47 39.56732 -104.84927 5850 ft 22 kts 176°
2026-04-25 20:47 39.56594 -104.84924 5861 ft 18 kts 178°
2026-04-25 20:47 39.56478 -104.84918 5857 ft 16 kts 177°
2026-04-25 20:47 39.56374 -104.84910 5870 ft 13 kts 176°
2026-04-25 20:48 39.56300 -104.84908 5866 ft 10 kts 184°
2026-04-25 20:48 39.56226 -104.84907 5871 ft 12 kts 177°
2026-04-25 20:48 39.56119 -104.84901 5876 ft 20 kts 177°
2026-04-25 20:48 39.55948 -104.84891 5888 ft 28 kts 178°
2026-04-25 20:49 39.55771 -104.84885 5891 ft 19 kts 178°
2026-04-25 20:49 39.55698 -104.84885 5891 ft 6 kts 198°
2026-04-25 20:49 39.55690 -104.84890 5891 ft 0 kts 217°
2026-04-25 20:50 39.55689 -104.84891 5891 ft 3 kts 223°
2026-04-25 20:50 39.55679 -104.84976 5892 ft 17 kts 272°
2026-04-25 20:50 39.55834 -104.85030 5889 ft 56 kts 357°
2026-04-25 20:50 39.56593 -104.85062 5896 ft 154 kts 358°
2026-04-25 20:51 39.57771 -104.85236 6810 ft 188 kts 347°
2026-04-25 20:51 39.59043 -104.86146 7355 ft 224 kts 322°
2026-04-25 20:51 39.60242 -104.87539 8178 ft 240 kts 317°
2026-04-25 20:51 39.61510 -104.89039 8995 ft 252 kts 317°
2026-04-25 20:52 39.62822 -104.90573 9867 ft 261 kts 315°
2026-04-25 20:52 39.63746 -104.91665 10394 ft 267 kts 315°
2026-04-25 20:52 39.65536 -104.93797 11576 ft 266 kts 310°
2026-04-25 20:52 39.66672 -104.95663 12613 ft 259 kts 297°
2026-04-25 20:53 39.67157 -104.97868 13174 ft 269 kts 270°
2026-04-25 20:53 39.66726 -105.00276 13501 ft 288 kts 246°
2026-04-25 20:53 39.65827 -105.02715 13777 ft 306 kts 244°
2026-04-25 20:53 39.64864 -105.05202 14427 ft 307 kts 243°
2026-04-25 20:54 39.63859 -105.07663 14877 ft 317 kts 243°
2026-04-25 20:54 39.63040 -105.10334 15367 ft 321 kts 253°
2026-04-25 20:54 39.62605 -105.13190 15992 ft 323 kts 261°
2026-04-25 20:54 39.62298 -105.16051 16563 ft 325 kts 261°
2026-04-25 20:55 39.61890 -105.18971 17161 ft 326 kts 257°
2026-04-25 20:55 39.61415 -105.21837 17723 ft 329 kts 258°
2026-04-25 20:55 39.60968 -105.24773 18308 ft 331 kts 258°
2026-04-25 20:55 39.60534 -105.27682 18855 ft 331 kts 258°
2026-04-25 20:56 39.60100 -105.30611 19386 ft 332 kts 258°
2026-04-25 20:56 39.59649 -105.33564 19916 ft 334 kts 258°
2026-04-25 20:56 39.59197 -105.36539 20436 ft 336 kts 258°
2026-04-25 20:56 39.58752 -105.39507 20938 ft 337 kts 258°
2026-04-25 20:57 39.58291 -105.42517 21439 ft 339 kts 258°
2026-04-25 20:57 39.57834 -105.45509 21924 ft 341 kts 258°
2026-04-25 20:57 39.57377 -105.48506 22434 ft 342 kts 258°
2026-04-25 20:57 39.56912 -105.51556 22929 ft 344 kts 259°
2026-04-25 20:58 39.56447 -105.54582 23399 ft 345 kts 258°
2026-04-25 20:58 39.55976 -105.57653 23802 ft 346 kts 259°
2026-04-25 20:58 39.55508 -105.60690 24214 ft 346 kts 258°
2026-04-25 20:58 39.54816 -105.63705 24612 ft 348 kts 250°
2026-04-25 20:59 39.53985 -105.66632 24976 ft 349 kts 252°
2026-04-25 20:59 39.53195 -105.69607 25385 ft 350 kts 252°
2026-04-25 20:59 39.52373 -105.72563 25755 ft 351 kts 251°
2026-04-25 20:59 39.51541 -105.75548 26100 ft 352 kts 251°